[[{"header":{"parameterUnit":"m.s-1","parameterCategory":1,"la1":30.2991,"la2":30.254,"lo1":-89.0895,"lo2":-89.0444,"dy":0.0017,"dx":0.0017,"nx":28,"ny":28,"refTime":"2024-09-25T21:00:00:Z","depth":0,"parameterNumber":2,"parameterNumberName":"U-component_of_WINDS"},"data":[0,0,0,0,0,0,0,0,0,0,0,0,0,0,0,0,0,0,0,0,0,0,0,0,0,0,0,0,0,0,0,0,0,0,0,0,0,0,0,0,0,0,0,0,0,0,0,0,0,0,0,0,0,0,0,0,0,0,-2.0748,-2.0749,0,-2.0822,-2.0823,-2.0824,-2.0814,-2.0813,-2.0812,-2.081,-2.0886,-2.0889,-2.0892,0,0,0,0,0,0,0,0,0,0,0,0,0,-2.0598,-2.0601,-2.0748,-2.0749,-2.075,-2.0822,-2.0823,-2.0824,-2.0814,-2.0813,-2.0811,-2.081,-2.0885,-2.0888,-2.0892,0,0,0,0,0,0,0,0,0,0,0,0,0,-2.0666,-2.0601,-2.0748,-2.0754,-2.0755,-2.0822,-2.0823,-2.0824,-2.0815,-2.0813,-2.0811,-2.0809,-2.0883,-2.0888,-2.0893,-2.0958,0,0,-2.0907,-2.0909,0,0,0,0,0,0,0,0,-2.0663,-2.0672,-2.0752,-2.0754,-2.0755,-2.0807,-2.0798,-2.0869,-2.0815,-2.0792,-2.081,-2.0808,-2.0861,-2.0867,-2.0885,-2.0962,-2.0965,-2.0907,-2.091,-2.0912,-2.0914,0,0,0,0,0,0,0,-2.0658,-2.0669,-2.0777,-2.0753,-2.0755,-2.0752,-2.076,-2.0811,-2.0836,-2.0794,-2.0793,-2.0802,-2.0861,-2.0881,-2.0887,-2.0966,-2.0907,-2.0912,-2.0914,-2.0916,-2.11,-2.1101,0,0,0,0,0,0,-2.0652,-2.0665,-2.0775,-2.078,-2.0703,-2.0757,-2.0765,-2.0792,-2.0835,-2.084,-2.0804,-2.0801,-2.0874,-2.0881,-2.089,-2.0969,-2.0912,-2.0917,-2.0919,-2.1097,-2.11,-2.1102,0,0,0,0,0,0,-2.0648,-2.0662,-2.0772,-2.0722,-2.0736,-2.0761,-2.0791,-2.0795,-2.0814,-2.0843,-2.0847,-2.0819,-2.0872,-2.0883,-2.0941,-2.0972,-2.0919,-2.0923,-2.1095,-2.1098,-2.1101,-2.1129,0,0,0,0,0,0,-2.0644,-2.0661,-2.0686,-2.0723,-2.0739,-2.0823,-2.0793,-2.0797,-2.0822,-2.082,-2.0858,-2.0863,-2.0872,-2.0934,-2.0946,-2.0977,-2.0927,-2.1092,-2.1096,-2.11,-2.1125,-2.1133,-2.1139,0,0,0,0,0,-2.0639,-2.0691,-2.0687,-2.0701,-2.0771,-2.0825,-2.0834,-2.0843,-2.0825,-2.085,-2.0869,-2.0861,-2.0966,-2.094,-2.0953,-2.0987,-2.1091,-2.1095,-2.11,-2.1122,-2.1131,-2.1139,0,0,0,0,0,0,-2.0657,-2.0696,-2.0692,-2.0758,-2.0788,-2.0823,-2.0856,-2.0852,-2.0888,-2.0885,-2.0895,-2.0904,-2.0963,-2.098,-2.0951,-2.1052,-2.1026,-2.1033,-2.1039,-2.1047,-2.1054,-2.1049,-2.0931,0,0,0,0,0,-2.0669,-2.0709,-2.0741,-2.0795,-2.0811,-2.0831,-2.0854,-2.0859,-2.0891,-2.0903,-2.0926,-2.0957,-2.0996,-2.1023,-2.1061,-2.1127,-2.1136,-2.1157,-2.1163,-2.1169,-2.1175,-2.1212,-2.1222,-2.1117,-2.1117,-2.1117,0,0,-2.0693,-2.0719,-2.0744,-2.08,-2.0824,-2.0865,-2.0841,-2.0886,-2.0917,-2.091,-2.0967,-2.0984,-2.1019,-2.1082,-2.1111,-2.1098,-2.1206,-2.1174,-2.1179,-2.1182,-2.1217,-2.1227,-2.1236,-2.112,-2.112,-2.1119,0,0,-2.0759,-2.0783,-2.0831,-2.0856,-2.0892,-2.0905,-2.0916,-2.0952,-2.0963,-2.102,-2.1015,-2.1052,-2.112,-2.1145,-2.1167,-2.1241,-2.1236,-2.1253,-2.1289,-2.1324,-2.1332,-2.134,-2.1367,-2.1376,-2.126,-2.126,-2.126,0,-2.0785,-2.0848,-2.0856,-2.0902,-2.0926,-2.0921,-2.097,-2.0993,-2.104,-2.1057,-2.1043,-2.1128,-2.1151,-2.122,-2.1238,-2.1256,-2.1269,-2.125,-2.133,-2.1338,-2.1345,-2.1371,-2.1381,-2.1262,-2.1261,-2.1261,-2.1261,0,-2.0878,-2.0921,-2.0956,-2.1001,-2.103,-2.1076,-2.1092,-2.1119,-2.1121,-2.1135,-2.1193,-2.122,-2.1264,-2.128,-2.1283,-2.1349,-2.134,-2.1328,-2.1302,-2.1357,-2.1381,-2.1391,-2.1264,-2.1264,-2.1263,-2.1263,0,0,-2.0959,-2.1008,-2.102,-2.1041,-2.108,-2.1114,-2.116,-2.1203,-2.1226,-2.1259,-2.1298,-2.1355,-2.1344,-2.1368,-2.1373,-2.1404,-2.1462,-2.1388,-2.1389,-2.1401,-2.1537,-2.1547,-2.1558,-2.1458,-2.146,-2.1462,-2.1534,0,-2.1029,-2.1111,-2.112,-2.1194,-2.1234,-2.1229,-2.1269,-2.1298,-2.1312,-2.1348,-2.1363,-2.1404,-2.1386,-2.14,-2.1431,-2.1448,-2.1489,-2.1443,-2.1495,-2.1497,-2.1487,-2.1571,-2.1581,-2.1649,-2.1544,-2.1545,-2.1547,0,-2.1122,-2.1157,-2.1235,-2.1269,-2.1286,-2.1322,-2.1362,-2.1396,-2.1427,-2.1435,-2.1463,-2.1463,-2.1511,-2.1482,-2.1547,-2.1516,-2.1537,-2.1549,-2.1552,-2.1558,-2.1526,-2.158,-2.167,-2.1681,-2.1562,-2.156,-2.1559,0,-2.1174,-2.124,-2.1296,-2.1313,-2.1354,-2.1379,-2.1397,-2.1427,-2.1452,-2.1486,-2.1502,-2.1542,-2.1564,-2.1594,-2.1605,-2.1583,-2.167,-2.1642,-2.1678,-2.1678,-2.1697,-2.1696,-2.1794,-2.171,-2.171,-2.1709,-2.1709,0,-2.1252,-2.13,-2.1319,-2.1353,-2.1407,-2.1416,-2.1468,-2.1484,-2.1511,-2.1548,-2.1546,-2.158,-2.1592,-2.1629,-2.1638,-2.169,-2.17,-2.1708,-2.171,-2.1709,-2.1708,-2.1724,-2.1719,-2.1712,-2.1712,-2.1711,-2.1711,0,-2.132,-2.1334,-2.1394,-2.1427,-2.1437,-2.1474,-2.1503,-2.1535,-2.1548,-2.1595,-2.1606,-2.1627,-2.167,-2.1683,-2.1735,-2.1741,-2.1803,-2.18,-2.1792,-2.1793,-2.1828,-2.1825,-2.194,-2.1955,-2.1861,-2.1861,-2.1862,0,-2.1369,-2.1406,-2.1443,-2.1467,-2.1486,-2.1526,-2.1551,-2.1561,-2.1588,-2.1626,-2.1654,-2.1696,-2.1731,-2.1799,-2.1819,-2.1858,-2.1857,-2.1894,-2.1863,-2.186,-2.1858,-2.1856,-2.186,-2.19,-2.1901,-2.1902,-2.1903,0,-2.1455,-2.1461,-2.1497,-2.1537,-2.1567,-2.1599,-2.1629,-2.1649,-2.1663,-2.1693,-2.1737,-2.1763,-2.1816,-2.1858,-2.1898,-2.1916,-2.1912,-2.1912,-2.1923,-2.1922,-2.1917,-2.1921,-2.1809,-2.191,-2.1909,-2.1909,-2.1908,-2.1908,-2.1516,-2.1548,-2.1579,-2.162,-2.1644,-2.1672,-2.1704,-2.1721,-2.1758,-2.1801,-2.1805,-2.1852,-2.1882,-2.1935,-2.1955,-2.1992,-2.1981,-2.1996,-2.2,-2.2004,-2.2007,-2.191,-2.1999,-2.1999,-2.1999,-2.1998,-2.1998,0,-2.1602,-2.1622,-2.1659,-2.1702,-2.1734,-2.1727,-2.176,-2.1787,-2.1829,-2.1857,-2.1891,-2.1941,-2.1981,-2.2004,-2.2044,-2.2069,-2.2068,-2.208,-2.2078,-2.2082,-2.2014,-2.2001,-2.208,-2.208,-2.2079,-2.2079,-2.2079,-2.2079,-2.1651,-2.1706,-2.1715,-2.178,-2.1799,-2.1846,-2.1865,-2.1891,-2.1914,-2.197,-2.2003,-2.2018,-2.2043,-2.2085,-2.2122,-2.2128,-2.2143,-2.2155,-2.216,-2.2096,-2.2087,-2.2079,-2.2067,-2.2158,-2.2158,-2.2225,-2.2226,-2.2226]},{"header":{"parameterUnit":"m.s-1","parameterCategory":1,"la1":30.2991,"la2":30.254,"lo1":-89.0895,"lo2":-89.0444,"dy":0.0017,"dx":0.0017,"nx":28,"ny":28,"refTime":"2024-09-25T21:00:00:Z","depth":0,"parameterNumber":3,"parameterNumberName":"V-component_of_WINDS"},"data":[0,0,0,0,0,0,0,0,0,0,0,0,0,0,0,0,0,0,0,0,0,0,0,0,0,0,0,0,0,0,0,0,0,0,0,0,0,0,0,0,0,0,0,0,0,0,0,0,0,0,0,0,0,0,0,0,0,0,-8.1152,-8.1152,0,-8.1195,-8.1195,-8.1195,-8.1089,-8.1086,-8.1083,-8.1079,-8.1118,-8.1122,-8.1126,0,0,0,0,0,0,0,0,0,0,0,0,0,-8.0973,-8.0976,-8.1151,-8.1152,-8.1153,-8.1194,-8.1195,-8.1196,-8.109,-8.1086,-8.1082,-8.1078,-8.1117,-8.1122,-8.1126,0,0,0,0,0,0,0,0,0,0,0,0,0,-8.1036,-8.0978,-8.1151,-8.1105,-8.1101,-8.1194,-8.1195,-8.1196,-8.1091,-8.1086,-8.1081,-8.1076,-8.1115,-8.1121,-8.1127,-8.1265,0,0,-8.1146,-8.1149,0,0,0,0,0,0,0,0,-8.1033,-8.1043,-8.1111,-8.1108,-8.1104,-8.1132,-8.1146,-8.1219,-8.1092,-8.1095,-8.1079,-8.1074,-8.1126,-8.1131,-8.115,-8.1267,-8.1269,-8.1147,-8.115,-8.1153,-8.1155,0,0,0,0,0,0,0,-8.1029,-8.104,-8.1168,-8.1112,-8.1108,-8.108,-8.1084,-8.1159,-8.1138,-8.1094,-8.1086,-8.1093,-8.1123,-8.1144,-8.115,-8.1269,-8.1146,-8.1152,-8.1156,-8.1158,-8.1503,-8.1508,0,0,0,0,0,0,-8.1031,-8.1038,-8.1167,-8.117,-8.1056,-8.1088,-8.1092,-8.1128,-8.1137,-8.1133,-8.1097,-8.1088,-8.1136,-8.1143,-8.1151,-8.1314,-8.1153,-8.1159,-8.1162,-8.1498,-8.1504,-8.151,0,0,0,0,0,0,-8.1027,-8.1043,-8.1165,-8.1102,-8.1115,-8.1096,-8.1138,-8.1131,-8.1152,-8.1139,-8.1134,-8.1123,-8.1132,-8.1142,-8.1238,-8.1314,-8.1162,-8.1167,-8.1491,-8.15,-8.1507,-8.1642,0,0,0,0,0,0,-8.1023,-8.1043,-8.1096,-8.1104,-8.1119,-8.1254,-8.1142,-8.1136,-8.1164,-8.1152,-8.1162,-8.1159,-8.1129,-8.123,-8.1245,-8.132,-8.1172,-8.1484,-8.1495,-8.1505,-8.1631,-8.1654,-8.1673,0,0,0,0,0,-8.1017,-8.1131,-8.11,-8.1116,-8.1186,-8.1258,-8.1267,-8.1232,-8.117,-8.1223,-8.1215,-8.1159,-8.1304,-8.124,-8.1256,-8.1335,-8.1479,-8.1492,-8.1504,-8.1621,-8.1649,-8.1673,0,0,0,0,0,0,-8.113,-8.1131,-8.1096,-8.1217,-8.1239,-8.124,-8.1306,-8.1262,-8.1301,-8.1288,-8.1241,-8.1244,-8.1349,-8.1351,-8.1281,-8.1469,-8.1381,-8.1397,-8.1464,-8.1491,-8.1512,-8.1509,-8.1177,0,0,0,0,0,-8.117,-8.1231,-8.1227,-8.1334,-8.1347,-8.1325,-8.1355,-8.1327,-8.1347,-8.1355,-8.1353,-8.1373,-8.1423,-8.1457,-8.1502,-8.163,-8.1631,-8.1692,-8.1713,-8.1731,-8.1745,-8.1814,-8.1841,-8.155,-8.155,-8.155,0,0,-8.1251,-8.1259,-8.13,-8.1357,-8.137,-8.1433,-8.1333,-8.1403,-8.1449,-8.1364,-8.1456,-8.1456,-8.1475,-8.1588,-8.1638,-8.1593,-8.1826,-8.1747,-8.1761,-8.1766,-8.1829,-8.1857,-8.1882,-8.1559,-8.1557,-8.1556,0,0,-8.1432,-8.1444,-8.1535,-8.1552,-8.1574,-8.1559,-8.1581,-8.159,-8.1588,-8.1679,-8.1618,-8.167,-8.1757,-8.1774,-8.1794,-8.1983,-8.1932,-8.1998,-8.211,-8.2178,-8.2201,-8.2221,-8.2289,-8.2314,-8.2013,-8.2013,-8.2013,0,-8.153,-8.1624,-8.1587,-8.1662,-8.1689,-8.1618,-8.1709,-8.1726,-8.1761,-8.1781,-8.1731,-8.184,-8.1847,-8.1964,-8.201,-8.2028,-8.2051,-8.1997,-8.2201,-8.2221,-8.2239,-8.2303,-8.2329,-8.2021,-8.202,-8.2019,-8.2019,0,-8.1743,-8.181,-8.188,-8.1919,-8.1954,-8.2037,-8.2011,-8.205,-8.2018,-8.2008,-8.2103,-8.211,-8.2156,-8.2181,-8.215,-8.2294,-8.2265,-8.2209,-8.2119,-8.2275,-8.2335,-8.2359,-8.2033,-8.203,-8.2027,-8.2025,0,0,-8.1996,-8.2016,-8.2042,-8.206,-8.208,-8.213,-8.2209,-8.2257,-8.2291,-8.2318,-8.2383,-8.2459,-8.2408,-8.2431,-8.2401,-8.246,-8.261,-8.2396,-8.2396,-8.2436,-8.277,-8.2813,-8.2842,-8.2577,-8.2582,-8.2585,-8.2768,0,-8.2176,-8.2315,-8.2284,-8.242,-8.2481,-8.2415,-8.2484,-8.2503,-8.2496,-8.2545,-8.2536,-8.2592,-8.2519,-8.2532,-8.2588,-8.2581,-8.2677,-8.2567,-8.2636,-8.2639,-8.2635,-8.2873,-8.2918,-8.3091,-8.2791,-8.2795,-8.2798,0,-8.2403,-8.2443,-8.2586,-8.2598,-8.2623,-8.2686,-8.2727,-8.2775,-8.2796,-8.2786,-8.2813,-8.2772,-8.2849,-8.2759,-8.2865,-8.2791,-8.2817,-8.2818,-8.2824,-8.2829,-8.2729,-8.2885,-8.3145,-8.3171,-8.2834,-8.2831,-8.2829,0,-8.2575,-8.2663,-8.276,-8.2777,-8.2794,-8.284,-8.2848,-8.2864,-8.2895,-8.293,-8.295,-8.2993,-8.3017,-8.3051,-8.3022,-8.2959,-8.3133,-8.304,-8.3127,-8.3128,-8.3166,-8.3165,-8.3435,-8.3183,-8.3183,-8.3182,-8.3182,0,-8.2779,-8.2869,-8.2838,-8.2898,-8.2997,-8.296,-8.3059,-8.3059,-8.3074,-8.3132,-8.3076,-8.3131,-8.309,-8.3141,-8.3119,-8.3211,-8.3221,-8.3215,-8.3209,-8.3221,-8.3222,-8.3238,-8.3226,-8.3189,-8.3187,-8.3186,-8.3185,0,-8.2987,-8.297,-8.3072,-8.308,-8.3084,-8.3157,-8.3163,-8.3218,-8.3208,-8.3282,-8.3297,-8.328,-8.3337,-8.3313,-8.3372,-8.3357,-8.3475,-8.3452,-8.3469,-8.3464,-8.3552,-8.3545,-8.3843,-8.388,-8.3604,-8.3607,-8.3609,0,-8.3119,-8.3187,-8.3204,-8.324,-8.3254,-8.3312,-8.3344,-8.331,-8.3346,-8.3375,-8.3427,-8.348,-8.3521,-8.3616,-8.3608,-8.3653,-8.3631,-8.3732,-8.3637,-8.3648,-8.3633,-8.363,-8.3637,-8.3751,-8.3755,-8.3757,-8.3759,0,-8.3355,-8.3343,-8.3393,-8.3441,-8.3481,-8.3516,-8.3545,-8.3578,-8.3545,-8.3587,-8.3647,-8.3679,-8.3742,-8.3795,-8.3836,-8.3842,-8.3796,-8.379,-8.3812,-8.3826,-8.3834,-8.3831,-8.3522,-8.3783,-8.378,-8.3779,-8.3777,-8.3776,-8.3529,-8.3588,-8.3609,-8.3667,-8.3686,-8.3716,-8.3769,-8.3766,-8.3816,-8.3866,-8.3842,-8.3912,-8.393,-8.398,-8.3994,-8.4046,-8.4006,-8.4039,-8.4047,-8.4056,-8.4068,-8.3825,-8.4053,-8.4052,-8.4052,-8.4051,-8.4051,0,-8.3763,-8.3774,-8.3828,-8.3873,-8.3918,-8.3872,-8.3903,-8.3943,-8.4006,-8.4028,-8.4071,-8.414,-8.4191,-8.4188,-8.4236,-8.4279,-8.4259,-8.4292,-8.4289,-8.4292,-8.4101,-8.4077,-8.4308,-8.4308,-8.4308,-8.4308,-8.4308,-8.4308,-8.389,-8.3987,-8.3979,-8.4084,-8.4094,-8.4164,-8.4186,-8.4212,-8.423,-8.4311,-8.4355,-8.4353,-8.4365,-8.4413,-8.4458,-8.4456,-8.4476,-8.4518,-8.4508,-8.433,-8.4305,-8.428,-8.4258,-8.4523,-8.4523,-8.4694,-8.4696,-8.4697]}]]